CZ-11 DEB (47236 NORAD) Tracking and Keplerian Element Data

This shows tracking and keplerian element data for the satellite.

Feedback or suggestion? Click here.




ElementValue
Catalog47236
NameCZ-11 DEB
Epoch Orbit176
Epoch Day357.11160346
Epoch Year2020
RAAN301.1218
Inclination28.9945
Eccentricity0.0032989
Argument of Perigee64.437
Mean Anonmoly295.9632
Mean Motion14.95081582
Decay Rate0.00016645
L11 47236U 20094C 20357.11160346 .00016645 00000-0 14539-2 0 9992
L22 47236 28.9945 301.1218 0032989 64.4370 295.9632 14.95081582 1765

Live tracking and technical data element details for CZ-11 DEB (NORAD 47236). CZ-11 DEB can be tracked NOW for your location showing map with azimuth and elevation plus other details from your city location.

Track the satellite on the map from your city or location and see movement details for azimuth, elevation, latitude, longitude, range, height, and movement on the map or in text.







IsCatalogInMostPopularTable: catalog: 47236, numindb: 26
Update: records affected: 1



GetName: 47236 CZ-11 DEB

Hit Count: updated at: Tue, 02 Mar 2021 13:31:05 GMT